Weather History for Stuart, FL

Change the Weather History Date:

Thursday, April 4, 2013

  Actual Average Record
Temperature  
Mean Temperature 76 °F -  
Max Temperature 82 °F 80 °F 96 °F (1949)
Min Temperature 69 °F 62 °F 42 °F (1987)
Cooling Degree Days 10    
Growing Degree Days 26 (Base 50)    
Moisture  
Dew Point 68 °F    
Average Humidity 85    
Maximum Humidity 94    
Minimum Humidity 54    
Precipitation  
Precipitation 0.00 in - - ()
Sea Level Pressure  
Sea Level Pressure 30.00 in    
Wind  
Wind Speed 7 mph (SSE)    
Max Wind Speed 14 mph    
Max Gust Speed 20 mph    
Visibility 9 miles    
Events Rain , Thunderstorm    
Averages and records for this station are not official NWS values.
T = Trace of Precipitation, MM = Missing Value Source: NWS Daily Summary

Daily Weather History Graph

Daily Weather History Graph

Search for Another Location

Airport:

Trip Planner

Search our weather history database for the weather conditions in past years. The results will help you decide how hot, cold, wet, or windy it might be!

Date:

Astronomy

Apr. 04, 2013 Rise Set
Actual Time 7:07 AM EDT 7:39 PM EDT
Civil Twilight 6:44 AM EDT 8:03 PM EDT
Nautical Twilight 6:17 AM EDT 8:30 PM EDT
Astronomical Twilight 5:49 AM EDT 8:58 PM EDT
Moon 3:03 AM EDT (4/4) 2:24 PM EDT (4/4)
Length of Visible Light 13h 18m
Length of Day
12h 31m
Waning Crescent, 34% of the Moon is Illuminated
Apr 4
Waning Crescent
Apr 10
New
Apr 18
First Quarter
Apr 25
Full
May 2
Last Quarter

Hourly Weather History & Observations

Time (EDT) Temp. Heat Index Dew Point Humidity Pressure Visibility Wind Dir Wind Speed Gust Speed Precip Events Conditions
12:15 AM 75.2 °F - 69.8 °F 83% 30.07 in 10.0 mi SSE 4.6 mph - N/A   Scattered Clouds
12:35 AM 75.2 °F - 69.8 °F 83% 30.07 in 10.0 mi SE 5.8 mph - N/A   Clear
12:55 AM 75.2 °F - 69.8 °F 83% 30.07 in 10.0 mi SSE 5.8 mph - N/A   Clear
1:15 AM 73.4 °F - 69.8 °F 88% 30.06 in 10.0 mi SSE 8.1 mph - N/A   Clear
1:35 AM 73.4 °F - 68.0 °F 83% 30.06 in 10.0 mi SSE 8.1 mph - N/A   Clear
1:55 AM 73.4 °F - 68.0 °F 83% 30.06 in 10.0 mi SSE 6.9 mph - N/A   Clear
2:15 AM 73.4 °F - 68.0 °F 83% 30.05 in 10.0 mi SSE 6.9 mph - N/A   Clear
2:35 AM 73.4 °F - 69.8 °F 88% 30.03 in 10.0 mi SE 8.1 mph - N/A   Clear
2:55 AM 73.4 °F - 69.8 °F 88% 30.01 in 10.0 mi SSE 9.2 mph - N/A   Clear
3:15 AM 73.4 °F - 69.8 °F 88% 30.01 in 10.0 mi SSE 8.1 mph - N/A   Clear
3:35 AM 73.4 °F - 69.8 °F 88% 30.01 in 10.0 mi SSE 9.2 mph - N/A   Clear
3:55 AM 73.4 °F - 68.0 °F 83% 30.00 in 10.0 mi SSE 8.1 mph - N/A   Clear
4:15 AM 73.4 °F - 68.0 °F 83% 30.00 in 10.0 mi SSE 9.2 mph - N/A   Clear
4:35 AM 73.4 °F - 68.0 °F 83% 30.00 in 10.0 mi SSE 6.9 mph - N/A   Clear
4:55 AM 73.4 °F - 68.0 °F 83% 30.00 in 10.0 mi South 8.1 mph - N/A   Clear
5:15 AM 73.4 °F - 68.0 °F 83% 30.00 in 10.0 mi South 8.1 mph - N/A   Clear
5:35 AM 73.4 °F - 68.0 °F 83% 30.00 in 10.0 mi South 8.1 mph - N/A   Mostly Cloudy
5:55 AM 73.4 °F - 68.0 °F 83% 30.00 in 10.0 mi South 8.1 mph - N/A   Overcast
6:15 AM 73.4 °F - 68.0 °F 83% 30.01 in 10.0 mi South 9.2 mph - N/A   Mostly Cloudy
6:47 AM 73.4 °F - 68.0 °F 83% 30.02 in 10.0 mi South 11.5 mph - N/A   Mostly Cloudy
7:47 AM 73.4 °F - 68.0 °F 83% 30.04 in 10.0 mi South 9.2 mph - N/A   Mostly Cloudy
8:47 AM 73.4 °F - 68.0 °F 83% 30.02 in 7.0 mi ESE 4.6 mph - N/A   Overcast
10:47 AM 77.0 °F - 68.0 °F 74% 30.02 in 7.0 mi South 11.5 mph 17.3 mph N/A   Mostly Cloudy
11:47 AM 80.6 °F 83.2 °F 68.0 °F 65% 30.03 in 7.0 mi South 13.8 mph 19.6 mph N/A   Overcast
12:47 PM 82.4 °F 85.4 °F 68.0 °F 62% 30.03 in 7.0 mi South 9.2 mph - N/A   Overcast
1:47 PM 82.4 °F 84.6 °F 66.2 °F 58% 30.01 in 7.0 mi South 9.2 mph - N/A   Mostly Cloudy
2:47 PM 82.4 °F 83.9 °F 64.4 °F 54% 29.97 in 7.0 mi SSW 6.9 mph - N/A Thunderstorm Mostly Cloudy
3:47 PM 75.2 °F - 71.6 °F 89% 29.96 in 7.0 mi South 9.2 mph - N/A Thunderstorm Overcast
4:20 PM 69.8 °F - 66.2 °F 88% 29.99 in 1.0 mi SSW 8.1 mph - N/A Rain , Thunderstorm Heavy Thunderstorms and Rain
4:47 PM 69.8 °F - 66.2 °F 88% 29.99 in 1.0 mi SSW 8.1 mph - N/A Rain , Thunderstorm Heavy Thunderstorms and Rain
5:55 PM 69.8 °F - 66.2 °F 88% 30.02 in 5.0 mi Variable 4.6 mph - N/A Rain , Thunderstorm Light Thunderstorms and Rain
6:47 PM 69.8 °F - 66.2 °F 88% 29.95 in 5.0 mi ESE 11.5 mph - N/A Rain , Thunderstorm Light Thunderstorms and Rain
8:15 PM 69.8 °F - 66.2 °F 88% 29.94 in 10.0 mi ESE 9.2 mph - N/A   Clear
8:35 PM 69.8 °F - 68.0 °F 94% 29.95 in 10.0 mi ESE 9.2 mph - N/A   Clear
8:55 PM 69.8 °F - 68.0 °F 94% 29.94 in 10.0 mi ESE 10.4 mph - N/A   Clear
9:15 PM 69.8 °F - 68.0 °F 94% 29.94 in 10.0 mi ESE 10.4 mph - N/A   Clear
9:35 PM 69.8 °F - 68.0 °F 94% 29.94 in 10.0 mi SE 9.2 mph - N/A   Clear
9:55 PM 69.8 °F - 68.0 °F 94% 29.95 in 10.0 mi SE 8.1 mph - N/A   Clear
10:15 PM 69.8 °F - 68.0 °F 94% 29.96 in 10.0 mi SSE 6.9 mph - N/A   Clear
10:35 PM 69.8 °F - 68.0 °F 94% 29.97 in 10.0 mi SSE 5.8 mph - N/A   Clear
10:55 PM 69.8 °F - 68.0 °F 94% 29.98 in 10.0 mi South 4.6 mph - N/A   Clear
11:15 PM 69.8 °F - 68.0 °F 94% 29.97 in 10.0 mi Calm Calm - N/A   Clear
11:35 PM 69.8 °F - 68.0 °F 94% 29.99 in 10.0 mi Calm Calm - N/A   Clear
11:55 PM 69.8 °F - 68.0 °F 94% 29.99 in 10.0 mi SSW 4.6 mph - N/A   Scattered Clouds